QPF
0.01 0.02 0.05 0.14 0.26 0.26 0.21 0.15 0.14 0.13 0.11 0.08 0.06 0.04 0.04 0.03 0.03 0.03 0.04 0.05 0.05 0.05 0.05 0.04 0.03 0.03 0.02 0.02 0.01 0.01 0.01 0.01 0.00 0.00 0.00 0.00 0.00 0.00 0.00 0.00 0.00 0.00 0.00
0.01 0.02 0.04 0.08 0.12 0.12 0.13 0.14 0.15 0.15 0.13 0.12 0.11 0.11 0.10 0.08 0.09 0.09 0.10 0.10 0.10 0.09 0.06 0.04 0.03 0.01 0.01 0.01 0.00 0.00 0.00 0.00 0.00 0.00 0.00 0.00 0.00 0.00 0.00 0.00 0.00 0.00 0.00
0.01 0.01 0.03 0.05 0.06 0.06 0.06 0.07 0.07 0.07 0.08 0.10 0.12 0.12 0.11 0.11 0.11 0.10 0.08 0.07 0.06 0.05 0.03 0.02 0.01 0.01 0.01 0.00 0.00 0.00 0.00 0.00 0.00 0.00 0.01 0.01 0.01 0.00 0.00 0.00 0.00 0.00 0.00
0.00 0.01 0.01 0.01 0.01 0.02 0.02 0.02 0.02 0.02 0.02 0.04 0.05 0.06 0.07 0.07 0.07 0.07 0.05 0.03 0.02 0.01 0.01 0.00 0.01 0.01 0.01 0.00 0.00 0.00 0.00 0.00 0.00 0.00 0.01 0.01 0.01 0.01 0.01 0.00 0.00 0.00 0.00
0.00 0.00 0.00 0.00 0.00 0.00 0.00 0.00 0.00 0.00 0.01 0.01 0.02 0.02 0.02 0.02 0.02 0.01 0.00 0.00 0.00 0.00 0.00 0.00 0.00 0.00 0.00 0.00 0.00 0.00 0.00 0.00 0.00 0.01 0.01 0.01 0.01 0.01 0.02 0.01 0.00 0.00 0.00
0.00 0.00 0.00 0.00 0.00 0.00 0.00 0.00 0.00 0.00 0.00 0.00 0.00 0.00 0.00 0.00 0.00 0.00 0.00 0.00 0.00 0.00 0.00 0.00 0.00 0.00 0.00 0.00 0.00 0.00 0.00 0.00 0.00 0.01 0.01 0.02 0.02 0.02 0.02 0.02 0.01 0.01 0.00
0.00 0.00 0.00 0.00 0.00 0.00 0.00 0.00 0.00 0.00 0.00 0.00 0.00 0.00 0.00 0.00 0.00 0.00 0.00 0.00 0.00 0.00 0.00 0.00 0.00 0.00 0.00 0.00 0.00 0.00 0.00 0.00 0.00 0.00 0.00 0.01 0.01 0.01 0.02 0.02 0.02 0.01 0.00
0.00 0.00 0.00 0.00 0.00 0.00 0.00 0.00 0.00 0.00 0.00 0.00 0.00 0.00 0.00 0.00 0.00 0.00 0.00 0.00 0.00 0.00 0.00 0.00 0.00 0.00 0.00 0.00 0.00 0.00 0.00 0.00 0.00 0.00 0.00 0.00 0.00 0.01 0.01 0.02 0.03 0.02 0.01
0.01 0.01 0.00 0.00 0.00 0.00 0.00 0.00 0.00 0.00 0.00 0.00 0.00 0.00 0.00 0.00 0.00 0.00 0.00 0.00 0.00 0.00 0.00 0.00 0.00 0.00 0.00 0.00 0.00 0.00 0.00 0.01 0.00 0.00 0.00 0.00 0.00 0.01 0.01 0.02 0.04 0.05 0.04
0.02 0.01 0.00 0.00 0.00 0.00 0.00 0.00 0.00 0.00 0.00 0.00 0.00 0.00 0.00 0.00 0.00 0.00 0.00 0.00 0.00 0.00 0.00 0.00 0.00 0.00 0.00 0.00 0.01 0.01 0.01 0.01 0.00 0.00 0.00 0.00 0.01 0.01 0.01 0.01 0.02 0.04 0.05
0.01 0.01 0.00 0.00 0.00 0.00 0.00 0.00 0.00 0.00 0.00 0.00 0.00 0.00 0.00 0.00 0.00 0.00 0.00 0.00 0.00 0.00 0.00 0.00 0.00 0.00 0.00 0.01 0.01 0.00 0.00 0.00 0.00 0.00 0.00 0.00 0.00 0.01 0.01 0.01 0.02 0.02 0.04
0.02 0.00 0.00 0.00 0.00 0.00 0.00 0.00 0.00 0.00 0.00 0.00 0.00 0.00 0.00 0.00 0.00 0.00 0.00 0.00 0.00 0.00 0.00 0.00 0.00 0.01 0.01 0.00 0.00 0.00 0.00 0.00 0.00 0.00 0.00 0.00 0.00 0.00 0.01 0.02 0.02 0.03 0.04
0.01 0.00 0.00 0.00 0.00 0.00 0.00 0.00 0.00 0.00 0.00 0.00 0.00 0.00 0.00 0.00 0.00 0.00 0.00 0.00 0.00 0.00 0.00 0.00 0.00 0.00 0.00 0.00 0.00 0.00 0.00 0.00 0.00 0.00 0.00 0.00 0.00 0.01 0.02 0.03 0.03 0.03 0.03
0.01 0.00 0.00 0.00 0.00 0.00 0.00 0.00 0.00 0.00 0.00 0.00 0.00 0.00 0.00 0.00 0.00 0.00 0.00 0.00 0.00 0.00 0.00 0.00 0.00 0.00 0.00 0.00 0.00 0.00 0.00 0.00 0.00 0.00 0.00 0.00 0.01 0.03 0.04 0.04 0.03 0.02 0.02
0.01 0.00 0.00 0.00 0.00 0.00 0.00 0.00 0.00 0.00 0.00 0.00 0.00 0.00 0.00 0.00 0.00 0.00 0.00 0.00 0.00 0.00 0.00 0.00 0.00 0.00 0.00 0.00 0.00 0.00 0.00 0.00 0.00 0.00 0.00 0.01 0.04 0.06 0.03 0.02 0.01 0.02 0.03
0.01 0.01 0.00 0.00 0.00 0.00 0.00 0.00 0.00 0.00 0.00 0.00 0.00 0.00 0.00 0.00 0.00 0.00 0.00 0.00 0.00 0.00 0.00 0.00 0.00 0.00 0.00 0.00 0.00 0.00 0.00 0.00 0.00 0.00 0.00 0.01 0.02 0.02 0.01 0.01 0.01 0.02 0.05
0.01 0.00 0.00 0.00 0.00 0.00 0.00 0.00 0.00 0.00 0.00 0.00 0.00 0.00 0.00 0.00 0.00 0.00 0.00 0.00 0.00 0.00 0.00 0.00 0.00 0.00 0.00 0.00 0.00 0.00 0.00 0.00 0.00 0.00 0.00 0.01 0.01 0.00 0.00 0.00 0.01 0.03 0.07
0.01 0.00 0.00 0.00 0.00 0.00 0.00 0.00 0.00 0.00 0.00 0.00 0.00 0.00 0.00 0.00 0.00 0.00 0.00 0.00 0.00 0.00 0.00 0.00 0.00 0.00 0.00 0.00 0.00 0.00 0.00 0.00 0.00 0.00 0.00 0.01 0.00 0.00 0.00 0.01 0.01 0.04 0.06
0.00 0.00 0.00 0.00 0.00 0.00 0.00 0.00 0.00 0.00 0.00 0.00 0.00 0.00 0.00 0.00 0.00 0.00 0.00 0.00 0.00 0.00 0.00 0.00 0.00 0.00 0.00 0.00 0.00 0.00 0.00 0.00 0.00 0.00 0.00 0.00 0.00 0.01 0.01 0.02 0.04 0.06 0.09
0.00 0.00 0.00 0.00 0.00 0.00 0.00 0.00 0.00 0.00 0.00 0.00 0.00 0.00 0.00 0.00 0.00 0.00 0.00 0.00 0.00 0.00 0.00 0.00 0.00 0.00 0.00 0.00 0.00 0.00 0.00 0.00 0.00 0.00 0.00 0.00 0.01 0.01 0.02 0.04 0.07 0.11 0.14
0.00 0.00 0.00 0.00 0.00 0.00 0.00 0.00 0.00 0.00 0.00 0.00 0.00 0.00 0.00 0.00 0.00 0.00 0.00 0.00 0.00 0.00 0.00 0.00 0.00 0.00 0.00 0.00 0.00 0.00 0.00 0.00 0.00 0.00 0.00 0.01 0.02 0.03 0.04 0.08 0.11 0.15 0.19
0.00 0.00 0.00 0.00 0.00 0.00 0.00 0.00 0.00 0.00 0.00 0.00 0.00 0.00 0.00 0.00 0.00 0.00 0.00 0.00 0.00 0.00 0.00 0.00 0.00 0.00 0.00 0.00 0.00 0.00 0.00 0.00 0.01 0.02 0.03 0.03 0.04 0.04 0.07 0.12 0.17 0.21 0.22
0.00 0.00 0.00 0.00 0.00 0.00 0.00 0.00 0.00 0.00 0.00 0.00 0.00 0.00 0.00 0.00 0.00 0.01 0.00 0.00 0.00 0.00 0.00 0.00 0.00 0.00 0.00 0.00 0.00 0.00 0.00 0.00 0.02 0.04 0.05 0.05 0.04 0.06 0.11 0.18 0.24 0.26 0.22
0.00 0.00 0.00 0.00 0.00 0.00 0.00 0.00 0.00 0.00 0.00 0.00 0.00 0.00 0.00 0.00 0.00 0.00 0.00 0.00 0.00 0.00 0.00 0.00 0.00 0.00 0.00 0.00 0.00 0.00 0.00 0.00 0.01 0.03 0.03 0.03 0.04 0.08 0.15 0.21 0.26 0.27 0.24
0.00 0.00 0.00 0.00 0.00 0.00 0.00 0.00 0.00 0.00 0.00 0.00 0.00 0.00 0.00 0.00 0.00 0.00 0.00 0.00 0.00 0.00 0.00 0.00 0.00 0.00 0.00 0.00 0.00 0.00 0.00 0.01 0.02 0.02 0.02 0.02 0.05 0.10 0.16 0.21 0.23 0.24 0.24
0.00 0.00 0.00 0.00 0.00 0.00 0.00 0.00 0.00 0.00 0.00 0.00 0.00 0.00 0.00 0.00 0.00 0.00 0.00 0.00 0.00 0.00 0.00 0.00 0.00 0.00 0.00 0.00 0.00 0.00 0.01 0.01 0.02 0.02 0.02 0.04 0.08 0.12 0.16 0.20 0.21 0.21 0.20
MSLP
1014.99 1015.34 1015.56 1015.67 1015.68 1015.64 1015.58 1015.56 1015.62 1015.76 1015.99 1016.28 1016.59 1016.90 1017.16 1017.36 1017.48 1017.55 1017.58 1017.60 1017.63 1017.68 1017.75 1017.84 1017.91 1017.96 1017.97 1017.93 1017.83 1017.70 1017.55 1017.39 1017.24 1017.10 1016.95 1016.79 1016.60 1016.35 1016.05 1015.68 1015.27 1014.84 1014.40
1015.45 1015.81 1016.04 1016.15 1016.15 1016.09 1016.03 1016.02 1016.10 1016.28 1016.57 1016.92 1017.30 1017.64 1017.92 1018.10 1018.19 1018.19 1018.15 1018.09 1018.06 1018.05 1018.09 1018.15 1018.22 1018.26 1018.27 1018.23 1018.14 1018.02 1017.88 1017.73 1017.59 1017.45 1017.31 1017.13 1016.91 1016.62 1016.25 1015.82 1015.34 1014.85 1014.38
1015.75 1016.16 1016.45 1016.60 1016.65 1016.62 1016.59 1016.61 1016.72 1016.95 1017.28 1017.67 1018.08 1018.44 1018.72 1018.88 1018.92 1018.86 1018.75 1018.62 1018.51 1018.44 1018.42 1018.45 1018.50 1018.53 1018.54 1018.51 1018.43 1018.33 1018.20 1018.07 1017.95 1017.81 1017.66 1017.46 1017.20 1016.86 1016.44 1015.95 1015.42 1014.89 1014.37
1015.91 1016.40 1016.78 1017.03 1017.15 1017.20 1017.22 1017.29 1017.43 1017.69 1018.04 1018.45 1018.86 1019.23 1019.49 1019.62 1019.62 1019.51 1019.33 1019.13 1018.95 1018.82 1018.75 1018.74 1018.75 1018.77 1018.78 1018.75 1018.70 1018.61 1018.51 1018.39 1018.27 1018.13 1017.96 1017.73 1017.43 1017.05 1016.58 1016.04 1015.47 1014.90 1014.36
1015.97 1016.55 1017.03 1017.40 1017.63 1017.77 1017.86 1017.98 1018.15 1018.42 1018.76 1019.17 1019.57 1019.91 1020.16 1020.27 1020.23 1020.08 1019.86 1019.60 1019.37 1019.18 1019.06 1018.99 1018.98 1018.98 1018.98 1018.96 1018.92 1018.85 1018.76 1018.66 1018.53 1018.38 1018.18 1017.91 1017.57 1017.14 1016.62 1016.04 1015.44 1014.84 1014.28
1015.93 1016.60 1017.21 1017.70 1018.05 1018.29 1018.45 1018.60 1018.79 1019.05 1019.38 1019.75 1020.13 1020.45 1020.67 1020.76 1020.71 1020.53 1020.28 1019.99 1019.71 1019.48 1019.31 1019.21 1019.16 1019.14 1019.13 1019.11 1019.08 1019.02 1018.93 1018.82 1018.68 1018.49 1018.25 1017.94 1017.55 1017.07 1016.52 1015.92 1015.29 1014.67 1014.09
1015.81 1016.58 1017.30 1017.91 1018.38 1018.71 1018.94 1019.12 1019.32 1019.56 1019.85 1020.18 1020.51 1020.80 1021.00 1021.08 1021.02 1020.84 1020.58 1020.28 1019.97 1019.71 1019.50 1019.36 1019.28 1019.23 1019.21 1019.18 1019.14 1019.08 1018.98 1018.85 1018.67 1018.44 1018.15 1017.79 1017.35 1016.83 1016.26 1015.63 1015.00 1014.37 1013.78
1015.63 1016.48 1017.30 1018.02 1018.59 1019.00 1019.29 1019.51 1019.70 1019.91 1020.17 1020.45 1020.74 1020.99 1021.17 1021.23 1021.17 1021.00 1020.75 1020.44 1020.13 1019.85 1019.61 1019.44 1019.33 1019.26 1019.21 1019.17 1019.11 1019.02 1018.89 1018.72 1018.49 1018.21 1017.86 1017.45 1016.96 1016.42 1015.82 1015.20 1014.56 1013.94 1013.34
1015.40 1016.33 1017.24 1018.05 1018.70 1019.19 1019.53 1019.77 1019.96 1020.15 1020.36 1020.60 1020.84 1021.05 1021.20 1021.26 1021.20 1021.04 1020.79 1020.50 1020.18 1019.89 1019.64 1019.45 1019.31 1019.22 1019.14 1019.07 1018.98 1018.85 1018.68 1018.46 1018.17 1017.82 1017.41 1016.94 1016.42 1015.85 1015.25 1014.64 1014.02 1013.40 1012.81
1015.17 1016.16 1017.14 1018.02 1018.75 1019.30 1019.68 1019.95 1020.15 1020.32 1020.49 1020.68 1020.87 1021.04 1021.16 1021.19 1021.13 1020.97 1020.73 1020.45 1020.14 1019.85 1019.59 1019.39 1019.23 1019.11 1019.01 1018.90 1018.78 1018.61 1018.38 1018.09 1017.74 1017.33 1016.86 1016.34 1015.79 1015.21 1014.61 1014.00 1013.40 1012.81 1012.23
1015.01 1016.05 1017.08 1018.01 1018.79 1019.38 1019.81 1020.10 1020.31 1020.47 1020.61 1020.76 1020.89 1021.01 1021.08 1021.08 1020.99 1020.83 1020.59 1020.31 1020.02 1019.73 1019.48 1019.27 1019.10 1018.97 1018.84 1018.70 1018.54 1018.32 1018.04 1017.69 1017.27 1016.80 1016.27 1015.71 1015.13 1014.54 1013.94 1013.35 1012.77 1012.20 1011.64
1014.99 1016.07 1017.12 1018.07 1018.87 1019.50 1019.96 1020.27 1020.49 1020.64 1020.75 1020.85 1020.93 1020.98 1020.99 1020.94 1020.81 1020.62 1020.38 1020.10 1019.82 1019.55 1019.31 1019.11 1018.95 1018.81 1018.66 1018.50 1018.30 1018.03 1017.70 1017.30 1016.82 1016.29 1015.72 1015.12 1014.51 1013.91 1013.31 1012.72 1012.15 1011.59 1011.04
1015.18 1016.26 1017.30 1018.24 1019.04 1019.67 1020.15 1020.48 1020.69 1020.83 1020.91 1020.96 1020.97 1020.95 1020.88 1020.76 1020.59 1020.36 1020.11 1019.83 1019.57 1019.32 1019.11 1018.93 1018.78 1018.65 1018.50 1018.32 1018.08 1017.78 1017.40 1016.95 1016.42 1015.85 1015.23 1014.60 1013.96 1013.33 1012.72 1012.12 1011.54 1010.98 1010.42
1015.60 1016.64 1017.64 1018.54 1019.30 1019.91 1020.38 1020.70 1020.91 1021.02 1021.07 1021.06 1020.99 1020.89 1020.74 1020.54 1020.30 1020.04 1019.77 1019.51 1019.26 1019.05 1018.88 1018.74 1018.62 1018.49 1018.35 1018.16 1017.90 1017.57 1017.15 1016.65 1016.08 1015.46 1014.81 1014.13 1013.46 1012.80 1012.15 1011.53 1010.92 1010.33 1009.76
1016.22 1017.20 1018.11 1018.93 1019.63 1020.19 1020.61 1020.91 1021.09 1021.17 1021.16 1021.09 1020.95 1020.75 1020.52 1020.25 1019.96 1019.67 1019.39 1019.14 1018.93 1018.76 1018.63 1018.54 1018.45 1018.35 1018.21 1018.01 1017.73 1017.37 1016.92 1016.38 1015.77 1015.11 1014.42 1013.70 1012.98 1012.28 1011.59 1010.91 1010.26 1009.64 1009.05
1016.98 1017.86 1018.66 1019.37 1019.97 1020.45 1020.81 1021.06 1021.19 1021.22 1021.16 1021.01 1020.79 1020.52 1020.21 1019.88 1019.55 1019.25 1018.98 1018.75 1018.59 1018.47 1018.40 1018.35 1018.30 1018.22 1018.08 1017.87 1017.57 1017.17 1016.68 1016.10 1015.46 1014.75 1014.02 1013.26 1012.49 1011.74 1010.99 1010.26 1009.56 1008.89 1008.28
1017.77 1018.54 1019.22 1019.80 1020.28 1020.66 1020.94 1021.11 1021.18 1021.15 1021.03 1020.82 1020.54 1020.20 1019.84 1019.47 1019.13 1018.82 1018.58 1018.40 1018.29 1018.23 1018.21 1018.20 1018.18 1018.10 1017.96 1017.72 1017.39 1016.95 1016.42 1015.79 1015.10 1014.35 1013.57 1012.77 1011.96 1011.15 1010.35 1009.57 1008.83 1008.13 1007.50
1018.50 1019.15 1019.70 1020.15 1020.51 1020.78 1020.97 1021.06 1021.07 1020.97 1020.79 1020.53 1020.21 1019.84 1019.45 1019.07 1018.74 1018.47 1018.27 1018.14 1018.09 1018.09 1018.11 1018.13 1018.11 1018.03 1017.85 1017.58 1017.20 1016.71 1016.11 1015.44 1014.70 1013.90 1013.08 1012.23 1011.38 1010.53 1009.69 1008.88 1008.12 1007.42 1006.80
1019.10 1019.64 1020.07 1020.40 1020.64 1020.81 1020.91 1020.93 1020.87 1020.73 1020.50 1020.21 1019.86 1019.49 1019.11 1018.76 1018.47 1018.24 1018.10 1018.04 1018.04 1018.08 1018.14 1018.16 1018.13 1018.01 1017.79 1017.46 1017.01 1016.45 1015.80 1015.06 1014.27 1013.42 1012.55 1011.67 1010.79 1009.91 1009.07 1008.26 1007.51 1006.84 1006.27
1019.53 1019.98 1020.31 1020.54 1020.70 1020.78 1020.81 1020.76 1020.65 1020.47 1020.22 1019.93 1019.59 1019.24 1018.90 1018.61 1018.38 1018.22 1018.15 1018.14 1018.19 1018.26 1018.31 1018.32 1018.25 1018.08 1017.79 1017.39 1016.86 1016.23 1015.50 1014.70 1013.85 1012.96 1012.06 1011.15 1010.25 1009.37 1008.54 1007.76 1007.06 1006.46 1005.98
1019.81 1020.19 1020.46 1020.62 1020.71 1020.74 1020.70 1020.62 1020.47 1020.27 1020.03 1019.75 1019.45 1019.15 1018.88 1018.66 1018.51 1018.43 1018.42 1018.46 1018.53 1018.60 1018.64 1018.61 1018.48 1018.23 1017.86 1017.37 1016.77 1016.06 1015.26 1014.40 1013.50 1012.58 1011.64 1010.72 1009.82 1008.96 1008.17 1007.45 1006.84 1006.34 1005.99
1019.98 1020.33 1020.55 1020.67 1020.72 1020.70 1020.63 1020.52 1020.37 1020.18 1019.96 1019.73 1019.49 1019.27 1019.08 1018.95 1018.88 1018.86 1018.90 1018.97 1019.05 1019.09 1019.08 1018.98 1018.78 1018.45 1017.99 1017.42 1016.73 1015.96 1015.10 1014.20 1013.26 1012.31 1011.36 1010.43 1009.55 1008.73 1007.99 1007.36 1006.85 1006.48 1006.27
1020.12 1020.43 1020.62 1020.72 1020.74 1020.71 1020.62 1020.51 1020.37 1020.20 1020.03 1019.86 1019.70 1019.57 1019.48 1019.43 1019.43 1019.47 1019.54 1019.61 1019.66 1019.66 1019.58 1019.39 1019.10 1018.68 1018.15 1017.50 1016.75 1015.92 1015.04 1014.10 1013.15 1012.19 1011.24 1010.33 1009.48 1008.70 1008.04 1007.50 1007.10 1006.86 1006.79
1020.27 1020.54 1020.71 1020.79 1020.79 1020.75 1020.67 1020.56 1020.45 1020.33 1020.22 1020.12 1020.06 1020.02 1020.02 1020.05 1020.11 1020.18 1020.26 1020.30 1020.30 1020.22 1020.05 1019.77 1019.38 1018.88 1018.27 1017.57 1016.79 1015.94 1015.05 1014.11 1013.17 1012.22 1011.30 1010.41 1009.60 1008.88 1008.28 1007.83 1007.54 1007.42 1007.47
1020.44 1020.68 1020.82 1020.87 1020.87 1020.82 1020.75 1020.67 1020.59 1020.53 1020.49 1020.47 1020.50 1020.55 1020.63 1020.72 1020.82 1020.91 1020.95 1020.95 1020.87 1020.70 1020.43 1020.05 1019.57 1019.00 1018.34 1017.61 1016.82 1015.99 1015.11 1014.21 1013.30 1012.40 1011.52 1010.68 1009.91 1009.25 1008.72 1008.34 1008.13 1008.10 1008.25
1020.64 1020.83 1020.93 1020.96 1020.94 1020.89 1020.83 1020.78 1020.75 1020.75 1020.79 1020.86 1020.97 1021.10 1021.25 1021.39 1021.50 1021.57 1021.57 1021.49 1021.32 1021.04 1020.67 1020.20 1019.64 1019.02 1018.33 1017.60 1016.84 1016.04 1015.22 1014.39 1013.55 1012.71 1011.89 1011.11 1010.40 1009.78 1009.30 1008.98 1008.83 1008.86 1009.05
Thickness
5731 5729 5728 5725 5722 5718 5713 5709 5705 5701 5698 5693 5687 5680 5672 5667 5663 5659 5654 5650 5646 5642 5639 5635 5631 5627 5622 5617 5614 5611 5606 5601 5597 5594 5594 5596 5594 5591 5587 5584 5582 5580 5579
5726 5723 5719 5716 5712 5707 5703 5699 5694 5690 5686 5682 5675 5668 5661 5655 5650 5645 5641 5636 5632 5628 5625 5621 5616 5612 5607 5602 5597 5592 5586 5581 5575 5568 5565 5568 5573 5572 5568 5562 5559 5557 5556
5725 5719 5714 5709 5704 5699 5694 5689 5683 5678 5673 5668 5662 5656 5649 5643 5637 5632 5627 5623 5619 5615 5610 5606 5600 5595 5589 5582 5577 5571 5565 5559 5554 5546 5539 5536 5539 5542 5545 5540 5537 5535 5534
5719 5713 5707 5701 5696 5691 5685 5679 5672 5666 5660 5655 5649 5642 5634 5627 5622 5617 5611 5607 5603 5598 5593 5588 5582 5576 5569 5563 5557 5551 5545 5540 5534 5528 5522 5514 5511 5509 5516 5517 5514 5513 5514
5710 5705 5699 5693 5688 5682 5675 5666 5659 5653 5647 5642 5636 5629 5621 5614 5608 5603 5598 5593 5587 5581 5575 5569 5563 5557 5551 5545 5539 5533 5527 5521 5516 5510 5505 5500 5496 5493 5491 5495 5497 5497 5499
5699 5694 5689 5684 5678 5672 5664 5656 5648 5640 5635 5630 5624 5617 5609 5602 5595 5589 5583 5577 5571 5565 5559 5553 5547 5542 5536 5530 5524 5519 5513 5508 5503 5498 5493 5488 5484 5482 5480 5481 5485 5486 5490
5690 5685 5679 5673 5667 5661 5654 5645 5638 5630 5624 5618 5611 5605 5598 5591 5583 5576 5569 5563 5556 5550 5544 5539 5533 5528 5523 5518 5512 5507 5502 5498 5493 5488 5484 5480 5477 5475 5473 5473 5476 5478 5483
5682 5677 5671 5664 5658 5650 5644 5636 5628 5621 5614 5607 5600 5594 5587 5580 5572 5565 5558 5550 5543 5536 5531 5526 5521 5517 5512 5508 5503 5497 5493 5488 5483 5480 5476 5473 5471 5469 5467 5465 5466 5471 5476
5674 5668 5662 5656 5648 5641 5634 5626 5619 5611 5604 5597 5590 5583 5576 5569 5561 5553 5545 5537 5531 5525 5520 5516 5512 5507 5503 5498 5493 5487 5482 5477 5472 5469 5467 5465 5465 5464 5462 5460 5459 5461 5468
5666 5662 5656 5648 5639 5631 5623 5616 5609 5602 5595 5587 5580 5573 5565 5557 5549 5541 5533 5526 5521 5515 5511 5508 5504 5499 5494 5488 5482 5476 5471 5466 5462 5460 5458 5457 5457 5457 5456 5456 5456 5455 5458
5661 5655 5648 5639 5630 5621 5612 5605 5599 5592 5584 5576 5568 5561 5553 5546 5538 5531 5524 5519 5513 5509 5505 5501 5497 5491 5484 5478 5471 5465 5460 5455 5452 5450 5449 5448 5448 5449 5450 5451 5452 5453 5454
5655 5647 5639 5628 5619 5609 5601 5595 5589 5582 5574 5566 5558 5550 5543 5536 5529 5523 5517 5512 5507 5503 5499 5495 5489 5482 5474 5467 5461 5455 5449 5445 5442 5441 5439 5439 5441 5442 5444 5446 5448 5450 5452
5646 5637 5627 5617 5607 5598 5592 5585 5578 5571 5563 5556 5548 5540 5533 5527 5521 5515 5511 5506 5502 5497 5493 5487 5481 5473 5465 5457 5450 5444 5439 5435 5432 5431 5430 5431 5432 5435 5438 5442 5444 5447 5450
5636 5625 5614 5603 5595 5588 5582 5574 5567 5560 5553 5546 5538 5531 5524 5519 5513 5509 5505 5500 5495 5490 5485 5479 5472 5463 5455 5447 5440 5434 5428 5425 5423 5422 5422 5424 5425 5429 5433 5437 5440 5442 5445
5621 5611 5599 5589 5582 5575 5569 5563 5556 5549 5543 5535 5528 5522 5516 5511 5506 5502 5497 5493 5488 5483 5477 5469 5461 5453 5444 5436 5429 5423 5420 5416 5415 5415 5416 5417 5421 5425 5428 5431 5435 5439 5444
5604 5595 5586 5579 5572 5565 5558 5551 5545 5538 5532 5525 5519 5513 5508 5503 5499 5494 5490 5485 5480 5473 5466 5459 5450 5442 5434 5426 5419 5414 5410 5408 5407 5408 5409 5411 5416 5419 5423 5427 5433 5438 5444
5592 5582 5574 5567 5560 5554 5547 5540 5533 5527 5522 5516 5511 5506 5501 5497 5493 5489 5483 5477 5470 5463 5455 5448 5439 5430 5422 5415 5408 5404 5401 5400 5400 5401 5403 5407 5412 5414 5419 5425 5433 5440 5447
5579 5571 5563 5556 5549 5543 5537 5530 5524 5518 5513 5508 5503 5499 5495 5491 5487 5482 5476 5468 5461 5453 5445 5437 5428 5419 5411 5404 5399 5396 5393 5393 5395 5397 5399 5403 5407 5412 5416 5423 5433 5443 5451
5566 5557 5551 5545 5539 5533 5526 5520 5514 5510 5506 5502 5498 5495 5492 5487 5482 5476 5469 5461 5452 5443 5434 5425 5416 5407 5400 5394 5391 5389 5387 5388 5390 5393 5397 5401 5405 5410 5415 5423 5434 5444 5453
5552 5546 5541 5536 5529 5523 5516 5511 5506 5503 5500 5497 5495 5492 5489 5484 5478 5471 5463 5454 5444 5433 5423 5413 5404 5397 5390 5386 5384 5382 5381 5382 5385 5391 5396 5400 5403 5409 5416 5424 5434 5444 5452
5542 5538 5534 5527 5520 5514 5509 5504 5500 5497 5496 5494 5492 5489 5485 5480 5473 5464 5455 5444 5433 5421 5411 5401 5393 5387 5382 5379 5378 5377 5376 5377 5381 5387 5392 5398 5403 5409 5418 5427 5436 5444 5449
5535 5531 5524 5516 5511 5508 5503 5499 5495 5495 5494 5491 5488 5484 5479 5472 5465 5453 5442 5431 5420 5409 5399 5390 5383 5378 5375 5373 5372 5373 5373 5374 5378 5383 5389 5396 5402 5410 5420 5430 5438 5445 5449
5526 5520 5513 5508 5505 5502 5498 5494 5492 5492 5490 5487 5482 5475 5468 5459 5450 5439 5428 5417 5407 5397 5388 5379 5374 5370 5369 5368 5368 5369 5371 5374 5378 5383 5389 5396 5404 5412 5422 5431 5439 5445 5447
5516 5511 5506 5503 5500 5497 5494 5491 5491 5490 5485 5479 5472 5464 5454 5444 5435 5426 5417 5407 5397 5387 5379 5373 5368 5365 5364 5363 5364 5365 5368 5372 5377 5382 5389 5396 5404 5413 5421 5429 5436 5441 5443
5508 5504 5501 5498 5496 5493 5491 5491 5489 5485 5478 5471 5463 5453 5443 5433 5423 5415 5406 5398 5390 5382 5374 5368 5363 5361 5361 5359 5358 5360 5363 5367 5373 5380 5388 5395 5403 5411 5419 5426 5431 5435 5437
5503 5500 5497 5494 5491 5490 5489 5488 5484 5479 5471 5461 5453 5444 5434 5425 5415 5407 5399 5392 5385 5379 5372 5366 5360 5358 5356 5356 5357 5359 5363 5367 5373 5379 5385 5392 5399 5406 5414 5420 5426 5430 5433